This is the latest recevied weather packets stored in our database for station/object WD5U-1. If no packets are shown the sender has not sent any weather packets the latest 10 day(s).
| Time | Temp. | Humidity | Pressure | Rain* | Wind** | Luminosity | Snow |
|---|---|---|---|---|---|---|---|
| 1777764044 | 24.44° C | 39% | 1020.3 hPa | 0 mm | - | - | - |
| 1777762819 | 24.44° C | 37% | 1020.3 hPa | 0 mm | - | - | - |
| 1777762717 | 24.44° C | 38% | 1020.5 hPa | 0 mm | - | - | - |
| 1777760786 | 23.89° C | 40% | 1020.8 hPa | 0 mm | - | - | - |
| 1777759701 | 23.89° C | 40% | 1020.7 hPa | 0 mm | - | - | - |
| 1777759580 | 23.33° C | 41% | 1020.7 hPa | 0 mm | - | - | - |
| 1777759458 | 23.89° C | 42% | 1020.7 hPa | 0 mm | - | - | - |
| 1777758618 | 25° C | 40% | 1020.8 hPa | 0 mm | - | - | - |
| 1777758497 | 25.56° C | 40% | 1020.9 hPa | 0 mm | - | - | - |
| 1777757545 | 24.44° C | 41% | 1021.2 hPa | 0 mm | - | - | - |
| 1777757079 | 23.89° C | 38% | 1021.3 hPa | 0 mm | - | - | - |
| 1777756958 | 23.89° C | 39% | 1021.3 hPa | 0 mm | - | - | - |
| 1777756816 | 23.89° C | 41% | 1021.2 hPa | 0 mm | - | - | - |
| 1777756241 | 23.89° C | 42% | 1021.3 hPa | 0 mm | - | - | - |
| 1777755622 | 24.44° C | 43% | 1021.2 hPa | 0 mm | - | - | - |
| 1777755258 | 24.44° C | 42% | 1021.5 hPa | 0 mm | - | - | - |
| 1777754063 | 23.33° C | 41% | 1021.7 hPa | 0 mm | - | - | - |
| 1777753941 | 23.33° C | 42% | 1022 hPa | 0 mm | - | - | - |
| 1777753820 | 23.33° C | 44% | 1021.7 hPa | 0 mm | - | - | - |
| 1777753597 | 23.89° C | 45% | 1021.8 hPa | 0 mm | - | - | - |
| 1777750945 | 23.33° C | 45% | 1022.2 hPa | 0 mm | - | - | - |
| 1777750338 | 22.78° C | 44% | 1022.2 hPa | 0 mm | - | - | - |
| 1777750217 | 22.78° C | 46% | 1022.2 hPa | 0 mm | - | - | - |
| 1777750105 | 23.33° C | 42% | 1022.3 hPa | 0 mm | - | - | - |
| 1777749265 | 23.89° C | 41% | 1022.4 hPa | 0 mm | - | - | - |
* Rain latest hour (hover to see other rain measurements)
** Current wind speed in m/s (hover to see current wind gust speed)